Location: Unspecified
(0.0000°N, 0.0000°E)
Time: 23:54:39
(UTC+00:00)

Vanguard 2 - Pass Details

Date: 08 October 2020
Orbit: 554 x 2937 km, 32.9° (Epoch: 28 October)

Event Time Altitude Azimuth Distance (km) Brightness Sun altitude
Rises 20:28:51 0° 225° (SW) 5,924 12.7 -40.1°
Reaches altitude 10° 20:32:31 10° 221° (SW) 5,162 12.1 -41.0°
Enters shadow 20:47:34 58° 155° (SSE) 3,245 10.3 -44.7°
Maximum altitude 20:48:32 59° 144° (SE) 3,243 - -45.0°
Drops below altitude 10° 21:05:30 10° 69° (ENE) 5,461 - -49.1°
Sets 21:09:27 0° 66° (ENE) 6,275 - -50.1°
